Weather in Dymnitsa

Russia / Kostroma Oblast     57°48′18″N   42°42′24″E
temp.,
°C
wind,
m/s
gust,
m/s
humid.,
%
clouds,
%
prec.,
mm/h
press.,
hPa
HPBL,
m
4 march, thu
thu400:00−2wsw4119395 0.1 1000681
03:00−2wsw4119498 0.3 997652
06:00−2sw51196100 0.8 992671
09:000w61190100 1.4 9901163
12:00−1wnw7128389 0.6 9911366
15:00−1nw6108393 0.8 9941173
18:00−7nw379083 0.1 997167
21:00−10nw239461 0.1 99977
5 march, fri
fri500:00−13nw23950 0.0 100021
03:00−14w23960 0.0 100120
06:00−14w239739 0.0 100277
09:00−11w369561 0.1 1003234
12:00−6w369293 0.0 1004607
15:00−5wnw368797 0.1 1006945
18:00−9nw2496100 0.3 100796
21:00−12nw379499 0.3 1010171
6 march, sat
sat600:00−17nw239663 0.0 101237
03:00−19wnw239531 0.0 101442
06:00−20wnw239934 0.0 101445
09:00−16wnw259517 0.0 1015209
12:00−11wnw249283 0.0 1014538
15:00−10w358892 0.1 1013869
18:00−12wsw2395100 0.1 101244
21:00−15wsw239791 0.2 101230
7 march, sun
sun700:00−16ssw239961 0.0 101057
03:00−15s399766 0.0 1007201
06:00−11s51392100 0.0 1002566
09:00−9ssw61293100 0.8 998772
12:00−6ssw61293100 0.7 994952
15:00−4s51094100 1.9 991937
18:00−5wsw51095100 1.9 989794
21:00−9w41188100 2.3 991765
8 march, mon
mon800:00−13wsw389365 0.0 991183
03:00−16sw239534 0.0 99239
06:00−14se229894 0.1 99240
09:00−10ne129697 0.4 993131
12:00−7n2393100 0.1 995477
15:00−7nnw3585100 0.2 998867
18:00−9nw3895100 0.1 1001326
21:00−12nnw399299 0.2 1005422